Des Moines, IA

12:03 PM CST on December 11, 2017 (GMT -0600)
Des Moines International

Weather History for KDSM - May, 2013

Change the Weather History Date:

Tuesday, May 28, 2013

  Actual Average Record
Temperature  
Mean Temperature 73 °F 66 °F  
Max Temperature 82 °F 76 °F 92 °F (1895)
Min Temperature 64 °F 56 °F 32 °F (1947)
Degree Days  
Heating Degree Days 0 2  
Month to date heating degree days 175 140  
Since 1 July heating degree days 6002 6179  
Cooling Degree Days 8 3  
Month to date cooling degree days 73 51  
Year to date cooling degree days 85 65  
Growing Degree Days 23 (Base 50)    
Moisture  
Dew Point 63 °F    
Average Humidity 74    
Maximum Humidity 93    
Minimum Humidity 54    
Precipitation  
Precipitation 0.39 in 0.15 in 2.34 in (1947)
Month to date precipitation 7.09 4.28  
Year to date precipitation 18.14 12.72  
Snow  
Snow 0.00 in 0.00 in T in (1947)
Month to date snowfall 6.9 0.0  
Since 1 July snowfall 55.2 35.3  
Snow Depth 0.00 in    
Sea Level Pressure  
Sea Level Pressure 29.68 in    
Wind  
Wind Speed 7 mph (South)    
Max Wind Speed 15 mph    
Max Gust Speed 19 mph    
Visibility 8 miles    
Events Rain , Thunderstorm    
T = Trace of Precipitation, MM = Missing Value Source: NWS Daily Summary

Daily Weather History Graph

Daily Weather History Graph

Search for Another Location

Airport or City:

Trip Planner

Search our weather history database for the weather conditions in past years. The results will help you decide how hot, cold, wet, or windy it might be!

Date:

Astronomy

May. 28, 2013 Rise Set
Actual Time 5:45 AM CDT 8:39 PM CDT
Civil Twilight 5:12 AM CDT 9:12 PM CDT
Nautical Twilight 4:30 AM CDT 9:54 PM CDT
Astronomical Twilight 3:42 AM CDT 10:42 PM CDT
Moon No Moon Rise 9:35 AM CDT (5/28)
Length of Visible Light 16h 00m
Length of Day
14h 54m
Waning Gibbous, 82% of the Moon is Illuminated
May 28
Waning Gibbous
May 31
Last Quarter
Jun 8
New
Jun 16
First Quarter
Jun 23
Full

Hourly Weather History & Observations

Time (CDT) Temp. Heat Index Dew Point Humidity Pressure Visibility Wind Dir Wind Speed Gust Speed Precip Events Conditions
12:54 AM 68.0 °F - 64.0 °F 87% 29.70 in 8.0 mi Calm Calm - 0.11 in Rain , Thunderstorm Light Thunderstorms and Rain
1:37 AM 66.9 °F - 64.0 °F 90% 29.74 in 2.5 mi SW 3.5 mph - 0.13 in Rain , Thunderstorm Light Thunderstorms and Rain
1:45 AM 66.9 °F - 64.0 °F 90% 29.73 in 1.8 mi Calm Calm - 0.22 in Rain , Thunderstorm Light Thunderstorms and Rain
1:54 AM 66.9 °F - 64.0 °F 90% 29.69 in 3.0 mi Calm Calm - 0.28 in Rain , Thunderstorm Light Thunderstorms and Rain
2:54 AM 66.0 °F - 63.0 °F 90% 29.59 in 9.0 mi NNE 10.4 mph - 0.12 in Rain , Thunderstorm Light Thunderstorms and Rain
3:00 AM 66.0 °F - 63.0 °F 90% 29.62 in 10.0 mi NNE 5.8 mph - 0.00 in Rain Light Rain
3:54 AM 66.0 °F - 63.0 °F 90% 29.61 in 10.0 mi East 8.1 mph - 0.00 in   Overcast
4:54 AM 64.9 °F - 63.0 °F 93% 29.66 in 10.0 mi Calm Calm - N/A   Scattered Clouds
5:19 AM 64.0 °F - 62.1 °F 93% 29.68 in 5.0 mi Calm Calm - N/A   Mostly Cloudy
5:34 AM 64.0 °F - 62.1 °F 93% 29.69 in 2.5 mi Calm Calm - N/A   Overcast
5:46 AM 64.0 °F - 62.1 °F 93% 29.70 in 7.0 mi Calm Calm - N/A   Overcast
5:54 AM 64.0 °F - 62.1 °F 93% 29.67 in 6.0 mi Calm Calm - N/A   Overcast
6:48 AM 64.4 °F - 62.6 °F 94% 29.69 in 4.0 mi Calm Calm - N/A   Overcast
6:54 AM 64.9 °F - 63.0 °F 93% 29.67 in 5.0 mi Calm Calm - N/A   Overcast
7:54 AM 66.9 °F - 64.0 °F 90% 29.65 in 10.0 mi South 9.2 mph - N/A   Mostly Cloudy
8:14 AM 66.9 °F - 64.0 °F 90% 29.67 in 10.0 mi South 9.2 mph - N/A   Scattered Clouds
8:52 AM 68.0 °F - 62.6 °F 83% 29.68 in 10.0 mi South 8.1 mph - N/A   Mostly Cloudy
8:54 AM 69.1 °F - 64.0 °F 84% 29.67 in 10.0 mi South 8.1 mph - N/A   Mostly Cloudy
9:54 AM 69.1 °F - 63.0 °F 81% 29.67 in 10.0 mi South 9.2 mph - N/A   Overcast
10:54 AM 70.0 °F - 64.0 °F 81% 29.67 in 10.0 mi SSW 9.2 mph - N/A   Overcast
11:54 AM 73.0 °F - 64.9 °F 76% 29.68 in 10.0 mi SW 9.2 mph - N/A   Mostly Cloudy
12:54 PM 77.0 °F - 64.9 °F 66% 29.68 in 10.0 mi SW 10.4 mph - N/A   Mostly Cloudy
1:54 PM 79.0 °F - 64.0 °F 60% 29.70 in 10.0 mi WNW 10.4 mph - N/A   Mostly Cloudy
2:54 PM 79.0 °F - 63.0 °F 58% 29.70 in 10.0 mi West 9.2 mph - N/A   Mostly Cloudy
3:54 PM 77.0 °F - 62.1 °F 60% 29.70 in 10.0 mi NW 10.4 mph - N/A   Mostly Cloudy
4:54 PM 80.1 °F 81.2 °F 62.1 °F 54% 29.67 in 10.0 mi NNW 8.1 mph - N/A   Mostly Cloudy
5:54 PM 79.0 °F - 63.0 °F 58% 29.70 in 10.0 mi SE 4.6 mph - N/A   Mostly Cloudy
6:54 PM 77.0 °F - 62.1 °F 60% 29.68 in 10.0 mi Calm Calm - N/A   Overcast
7:54 PM 75.0 °F - 64.0 °F 69% 29.68 in 10.0 mi ESE 6.9 mph - N/A   Overcast
8:54 PM 73.9 °F - 66.0 °F 76% 29.71 in 10.0 mi East 3.5 mph - N/A   Overcast
9:54 PM 70.0 °F - 61.0 °F 73% 29.74 in 10.0 mi ESE 6.9 mph - N/A   Overcast
10:54 PM 68.0 °F - 62.1 °F 81% 29.75 in 10.0 mi SE 10.4 mph - N/A   Overcast
11:54 PM 68.0 °F - 60.1 °F 76% 29.74 in 10.0 mi SE 3.5 mph - N/A   Overcast